Location: �terpigny
(49.8910°N, 2.9249°E)
Time: 21:29:23
(UTC+00:00)

DIWATA 2B (PO-101) - Pass Details

Date: 01 July 2022
Orbit: 583 x 599 km, 98.0° (Epoch: 07 August)

Event Time Altitude Azimuth Distance (km) Brightness Sun altitude
Exits shadow 01:39:15 15° 171° (S) 1,614 ? -13.2°
Maximum altitude 01:42:40 78° 256° (WSW) 620 ? -13.0°
Drops below altitude 10° 01:46:55 10° 344° (NNW) 1,952 ? -12.7°
Sets 01:49:06 0° 345° (NNW) 2,859 ? -12.5°
